Terminal Aerodrome Forecast
Issued by NWS Twin Cities, MN

Home | Current Version | Previous Version | Graphics & Text | Print | Product List | Glossary On
Versions: 1 2 3 4 5 6 7 8 9 10 11 12 13 14 15 16 17 18 19 20 21 22 23 24 25 26 27 28 29
000
FTUS43 KMPX 182300
TAFMSP
TAF
KMSP 182320Z 1900/2006 VRB05KT P6SM SCT250
     FM190600 17007KT P6SM SCT200
     FM191300 19010G17KT P6SM BKN150
     FM191900 24012G18KT P6SM SCT150
     FM200000 27007KT P6SM SKC=

USA.gov is the U.S. government's official web portal to all federal, state and local government web resources and services.